Dewpoint
57 57 56 56 56 56 57 57 57 56 56 56 56 56 56 56 56 57 57 57 57 57 57 57 58 57 57 58 57 58 58 56 55 53 53 50 55 58 68 67 73 77 76 70 65 66 61 60 64 69 69 68 68 67 69 67 67 65 59 57 56 57 56 60 59 61 62 61 62 63 64 63 63 65 66 68 66 65 64 66 67 64 62 64 53 53 53 57
57 57 56 56 56 56 57 57 56 56 56 55 55 55 56 56 56 56 56 57 57 57 57 57 57 57 57 57 57 57 57 55 54 53 52 57 62 69 69 70 76 77 74 65 65 65 63 63 69 70 68 66 69 66 68 65 67 62 60 57 54 59 61 62 62 63 62 62 63 63 65 64 64 65 66 65 64 64 63 66 67 66 64 53 52 52 52 57
56 56 56 56 56 56 57 57 56 56 55 55 55 56 56 57 56 55 56 56 57 57 57 57 57 57 57 57 58 58 56 54 53 53 54 65 64 70 66 74 76 78 68 65 65 65 64 67 69 69 68 67 68 66 67 65 66 65 60 57 58 62 62 63 64 64 64 65 63 63 65 65 65 66 66 64 63 64 64 63 66 64 64 51 51 51 52 55
56 56 56 56 56 56 56 56 56 55 55 55 56 56 56 56 55 55 55 55 56 57 57 57 57 57 57 57 58 58 55 54 52 52 54 68 67 71 67 75 76 78 69 66 64 64 66 70 69 68 68 66 68 68 64 66 65 66 62 59 61 64 62 64 65 65 65 66 64 65 65 64 64 67 66 63 62 64 66 65 64 62 62 51 50 50 52 53
56 56 56 56 56 56 56 55 55 55 55 55 56 56 56 55 55 56 55 55 55 56 57 57 57 57 57 57 58 57 54 43 42 58 66 70 71 71 70 75 76 75 72 67 64 63 69 68 67 68 67 64 67 65 64 67 66 65 63 65 64 64 61 65 66 67 66 66 66 65 63 62 66 68 66 65 61 61 63 64 65 63 63 50 50 50 52 52
55 56 56 55 55 55 55 55 55 55 55 55 56 55 55 55 55 56 55 55 55 56 57 57 57 57 57 58 57 56 52 27 42 53 72 70 72 70 72 75 76 72 72 68 63 65 66 66 66 66 64 63 65 62 64 66 67 61 64 65 65 65 64 66 66 67 67 65 65 63 64 66 65 65 67 65 64 65 65 63 65 65 61 53 50 51 52 52
55 55 55 55 55 55 55 54 54 55 55 55 55 54 55 55 55 55 56 56 55 56 56 57 57 57 57 58 56 54 50 40 46 59 72 70 73 72 75 75 77 71 71 70 64 65 65 65 66 65 65 62 62 63 63 66 66 63 60 63 64 65 64 66 66 67 67 66 64 66 68 64 65 61 65 64 65 66 62 62 63 65 56 54 52 53 52 52
54 55 55 54 54 54 54 54 54 54 54 54 54 55 54 55 55 56 56 56 56 56 57 57 56 57 58 55 53 52 49 44 51 68 70 71 72 73 75 71 72 69 69 69 65 64 64 65 65 65 63 60 60 63 63 65 64 63 62 64 65 65 65 66 67 67 67 66 67 67 66 64 65 65 64 64 64 64 65 62 63 65 55 55 55 57 57 53
54 54 54 54 54 53 54 54 54 54 54 54 54 54 55 55 56 56 56 56 56 56 57 56 57 57 58 55 53 44 39 46 63 68 68 68 68 72 70 68 70 69 68 69 68 63 63 64 64 63 61 61 56 62 60 59 56 61 61 62 63 64 65 65 65 65 65 67 67 66 65 66 68 67 65 66 68 70 68 61 61 59 54 57 56 56 58 54
54 54 54 53 53 54 54 54 54 54 54 54 54 55 55 55 55 56 57 57 57 57 57 56 57 59 54 53 52 28 36 67 67 68 66 66 69 69 66 68 68 68 67 67 67 66 61 61 62 63 61 59 56 58 62 55 57 63 62 65 63 64 63 63 63 64 65 65 66 63 63 65 67 67 61 67 71 69 66 60 59 56 56 54 60 59 57 56
53 53 53 53 53 53 53 53 54 54 54 54 54 54 55 55 56 56 57 57 57 57 57 57 57 56 54 53 43 26 55 64 67 67 68 68 68 66 63 65 68 66 64 65 66 67 67 61 62 59 61 62 56 56 59 57 63 60 63 62 64 63 63 63 63 63 65 65 67 65 63 66 67 65 63 66 68 68 62 60 58 57 56 54 60 58 58 58
53 53 53 53 53 53 53 53 54 54 54 54 54 54 54 55 56 56 57 58 57 58 57 57 58 55 54 52 47 24 56 61 66 67 69 68 64 63 61 62 67 63 63 64 66 67 67 66 57 55 57 58 61 56 58 57 63 62 62 61 62 63 61 62 61 62 65 64 67 67 63 63 63 62 64 68 68 67 63 61 58 57 56 55 60 57 58 56
53 53 53 53 53 53 53 54 54 54 54 54 54 54 55 55 56 57 57 58 58 58 58 57 58 55 54 41 45 47 44 63 63 64 66 64 61 62 59 58 66 62 63 65 65 66 66 64 59 54 55 55 55 57 58 59 61 61 62 62 60 61 60 64 65 64 65 64 67 66 54 56 61 63 63 65 64 64 62 61 59 58 57 57 59 57 59 56
53 53 52 52 52 53 53 54 54 54 54 54 54 55 55 55 56 57 57 58 59 59 59 58 56 55 52 43 44 49 44 59 58 60 62 60 57 58 58 55 59 61 63 65 66 65 62 60 60 55 56 57 57 61 64 54 55 58 61 61 58 56 54 64 63 64 61 66 65 64 53 53 59 62 63 64 64 62 60 62 58 57 58 59 58 58 59 57
52 52 52 52 52 53 53 53 53 54 54 54 54 54 55 55 56 56 57 59 59 59 58 58 56 54 52 48 49 48 70 54 53 55 59 54 52 52 53 55 53 55 58 62 63 64 64 62 59 53 58 56 57 61 56 55 59 55 54 55 57 54 57 63 65 63 59 63 65 63 53 53 57 60 63 63 64 62 60 61 58 56 59 58 57 58 59 56
52 52 52 52 52 53 53 53 53 53 53 54 53 54 54 55 56 57 58 59 58 59 56 55 54 53 46 38 37 64 54 48 48 52 57 53 49 45 50 53 54 52 53 56 60 61 61 63 57 56 58 54 52 56 51 49 51 52 51 52 53 55 58 61 64 62 64 63 64 62 54 58 59 61 61 63 63 62 60 61 59 58 57 57 56 57 58 58
52 52 53 53 53 53 53 52 53 53 53 53 53 54 54 55 56 58 59 59 58 59 55 51 54 53 39 36 40 36 47 45 47 51 55 53 47 46 49 53 54 54 53 54 56 57 57 56 61 56 54 53 54 53 50 47 46 47 49 50 53 54 57 55 62 62 63 61 60 61 60 57 59 60 60 63 63 61 60 61 60 58 56 56 56 57 58 57
52 52 53 53 52 53 52 53 53 53 53 53 53 54 53 57 59 59 59 60 58 55 54 54 51 45 38 40 30 33 44 44 47 51 54 52 49 49 49 51 53 55 54 54 55 54 55 53 51 51 52 53 58 51 46 43 44 47 46 47 47 55 55 54 55 59 61 60 58 59 60 60 59 59 60 61 63 61 60 60 60 59 55 55 55 57 58 56
52 52 52 53 52 52 53 52 53 53 53 53 53 54 56 59 58 53 48 47 52 40 25 46 42 20 11 27 30 30 35 44 50 51 51 51 50 49 49 51 52 53 53 54 54 54 54 52 48 47 47 49 48 49 46 45 45 42 46 45 46 52 55 55 56 60 60 59 60 59 58 59 58 59 60 61 62 61 60 60 61 60 55 55 54 56 58 56
52 52 52 53 53 52 52 53 53 53 53 52 49 50 50 43 49 49 49 48 45 39 29 36 38 28 27 22 20 29 31 32 49 52 51 51 51 50 50 50 51 53 53 52 52 53 53 47 44 43 43 47 48 49 48 46 44 44 45 45 44 50 52 53 54 59 61 59 59 59 59 58 57 58 60 60 61 60 59 59 59 60 56 55 54 55 58 56
52 52 53 52 53 53 53 53 53 53 52 50 49 47 27 26 26 28 40 45 44 41 36 36 39 31 24 26 29 25 24 24 26 45 53 55 53 52 51 51 50 50 50 51 49 47 50 45 44 44 43 46 48 48 47 45 45 43 45 43 46 49 50 52 53 58 60 58 56 59 59 57 56 58 59 59 59 58 58 58 59 59 59 55 55 55 57 57
52 52 52 52 52 53 53 52 52 52 52 50 49 47 44 36 29 30 28 25 33 42 41 37 37 36 33 31 31 34 29 25 25 22 30 54 47 48 42 46 43 44 48 49 47 43 44 44 44 44 43 46 47 46 46 44 42 43 41 41 47 49 51 54 53 58 60 56 52 54 55 56 57 57 58 58 58 58 57 58 59 59 59 56 56 54 55 56
52 52 52 52 52 52 52 53 52 52 50 49 49 48 45 43 42 42 39 36 35 36 39 40 38 36 35 36 35 31 28 26 24 23 22 49 40 41 38 38 38 38 40 42 42 42 39 39 41 43 43 43 43 44 44 42 41 39 35 42 46 49 50 49 51 56 59 54 51 52 54 55 58 59 58 59 58 59 58 58 59 58 58 57 56 54 54 54
52 52 52 52 52 52 52 52 51 50 49 47 45 45 45 45 44 43 39 36 34 35 33 33 37 37 37 35 38 37 33 27 22 19 27 39 38 38 39 37 38 39 39 40 39 39 39 39 42 42 43 42 42 42 42 41 38 39 36 37 43 48 48 47 50 53 55 50 54 51 51 51 55 55 56 58 60 61 59 58 59 58 58 57 56 55 53 54
52 52 52 52 51 52 51 51 48 45 45 42 45 46 45 45 44 43 38 35 36 35 37 35 33 33 34 40 40 35 31 29 21 17 25 31 36 37 37 40 39 38 38 39 38 37 39 40 40 41 41 42 40 39 40 40 38 38 38 36 43 47 47 49 51 51 49 48 51 47 45 45 52 54 55 56 58 58 59 57 57 57 57 57 56 56 54 53
52 52 52 52 51 51 51 47 44 46 43 39 38 40 43 45 44 43 38 37 33 36 36 32 33 30 34 31 35 34 29 21 18 18 23 23 39 36 37 35 38 34 37 38 36 36 34 36 39 39 40 40 39 39 40 40 38 37 37 34 42 46 47 50 50 47 45 43 47 48 43 42 49 53 54 54 56 56 58 57 56 56 56 56 56 56 55 52
52 52 52 52 51 51 44 38 47 46 39 38 40 44 45 45 46 43 35 34 33 37 32 33 23 25 29 29 32 27 21 16 21 25 21 29 30 35 34 33 35 36 35 37 38 32 32 32 34 38 38 40 40 39 41 40 38 36 38 37 43 50 48 49 48 45 46 48 48 48 46 43 43 47 52 54 54 55 56 56 56 55 55 56 56 56 56 53
52 52 52 52 51 50 47 47 46 45 42 40 44 45 45 45 46 41 40 34 30 34 24 24 21 31 29 29 27 23 15 15 17 20 22 24 23 24 26 32 32 32 33 32 29 32 35 30 31 35 37 38 39 39 39 39 38 37 38 40 43 46 48 48 45 44 46 44 45 47 46 42 43 46 50 54 53 54 54 55 55 55 55 56 56 56 56 55
52 52 52 51 51 50 49 48 47 44 45 46 47 47 45 45 44 36 35 33 35 23 27 21 26 25 26 27 24 22 16 20 14 18 21 22 19 20 19 21 31 32 32 31 29 31 37 39 38 37 38 37 38 39 39 39 38 39 39 39 45 42 45 46 43 41 44 42 42 45 43 39 39 45 46 52 52 52 53 54 55 55 55 55 56 56 55 55
52 51 51 51 50 47 48 49 47 47 47 48 47 45 44 44 38 36 22 24 33 25 25 25 21 20 20 23 21 19 13 12 16 19 19 18 19 20 22 20 20 21 20 22 23 24 26 39 45 41 38 38 39 39 40 40 40 41 39 36 34 31 36 43 42 39 40 38 40 43 42 37 35 42 44 47 48 51 52 53 54 54 54 55 55 55 55 54
51 50 50 50 47 46 45 41 41 45 46 47 44 43 42 39 38 33 27 24 26 25 23 20 19 20 17 20 18 16 12 10 10 13 13 17 15 16 22 20 24 21 21 23 21 22 25 29 42 41 42 41 40 39 40 41 40 40 36 35 30 30 27 38 42 38 37 36 35 39 40 37 34 39 45 45 47 49 50 50 52 53 53 54 54 54 55 54
50 50 50 49 48 48 44 37 44 46 47 45 45 42 38 31 30 32 29 33 25 21 19 17 20 16 15 18 16 13 10 9 12 9 9 11 14 13 16 20 19 19 18 19 19 25 21 22 38 40 46 39 39 38 38 39 38 36 34 35 31 30 28 29 35 33 31 30 33 35 38 37 34 38 42 44 44 46 48 49 51 52 52 52 53 53 54 54
49 49 50 49 49 47 47 45 45 46 46 44 46 41 36 31 23 26 28 27 27 23 20 25 18 15 13 11 10 11 11 8 10 14 12 13 14 13 16 17 20 19 18 23 21 22 22 25 35 38 41 42 39 36 36 36 36 35 35 33 29 26 24 25 29 32 30 28 31 32 36 35 40 36 41 43 44 45 47 49 50 51 51 51 52 52 53 53
49 49 47 48 48 48 48 49 48 48 44 48 41 38 37 31 28 45 24 24 21 23 23 21 21 19 11 8 9 10 9 11 10 10 12 17 14 13 15 17 20 19 20 26 19 20 21 21 22 36 36 39 38 37 37 36 34 35 35 33 32 26 26 25 28 24 24 27 31 30 31 38 30 34 37 43 44 44 47 48 49 50 50 50 51 52 52 52
48 48 48 48 48 48 48 48 48 49 47 47 36 35 30 26 33 31 28 27 27 23 19 18 18 17 11 10 13 10 10 10 14 14 12 10 9 16 16 17 20 21 22 18 23 26 20 21 24 34 36 38 36 37 37 36 35 34 34 29 26 26 35 23 30 29 31 29 28 31 31 37 33 42 40 41 43 43 47 48 50 49 48 48 49 51 51 50
47 46 47 47 48 48 48 48 47 47 47 40 34 32 28 29 27 29 26 25 21 18 18 17 20 17 14 13 15 11 13 14 14 16 12 11 10 12 19 19 18 19 18 17 23 20 22 18 21 27 35 36 35 37 37 36 33 34 33 29 28 26 24 29 38 37 32 27 27 33 38 29 32 29 34 41 42 43 45 47 48 48 48 47 48 49 50 48
45 46 47 48 49 49 48 48 48 47 46 38 31 26 29 27 27 26 34 21 20 20 17 14 17 15 14 12 14 12 13 16 13 13 9 10 12 10 18 20 20 19 19 19 18 18 18 18 17 19 25 35 36 37 37 36 35 32 28 29 28 24 26 25 24 32 27 25 31 30 29 29 29 34 38 39 40 41 44 45 47 48 47 46 48 49 50 48
45 46 49 49 49 48 48 48 47 47 43 36 30 48 41 28 28 24 22 18 17 16 14 18 17 19 26 16 13 14 15 13 10 9 5 7 8 13 15 18 20 20 19 18 17 18 16 13 14 16 24 33 37 37 35 36 36 33 31 22 21 24 23 27 24 24 24 27 25 27 34 35 33 34 34 38 38 40 43 45 46 47 46 45 47 48 48 47
46 46 47 50 49 48 48 48 47 45 38 33 32 28 35 28 27 22 19 19 17 15 13 14 17 21 13 18 12 11 13 12 7 5 4 7 5 15 14 17 17 20 19 17 15 20 18 11 12 17 17 26 31 34 32 32 32 33 34 30 27 28 26 26 19 27 22 28 24 24 31 31 32 31 30 36 38 41 43 44 45 46 46 45 45 46 47 47
46 46 43 48 48 48 48 47 44 42 37 32 31 28 26 20 19 19 18 17 16 16 15 15 22 17 19 16 10 10 15 13 4 3 2 11 4 17 15 17 16 17 18 17 15 16 15 15 12 12 21 30 29 31 30 29 28 29 29 27 29 27 26 21 25 23 20 26 28 28 23 31 33 38 30 32 37 41 44 45 46 46 46 45 45 46 47 48
47 46 46 48 47 47 47 45 42 41 38 35 31 28 27 24 23 23 23 22 20 19 15 14 16 16 18 14 13 9 14 11 9 6 2 7 6 17 16 16 17 15 16 15 15 14 20 15 11 12 14 27 25 29 29 28 28 28 27 26 26 24 25 22 22 26 25 28 30 26 24 36 29 37 37 36 41 43 45 45 45 45 45 45 45 46 47 50
45 43 46 47 46 46 44 39 42 41 35 34 29 29 27 37 26 23 21 19 18 15 17 17 19 16 17 12 10 13 16 17 14 9 7 5 7 9 14 16 16 15 14 15 14 13 14 19 13 11 10 12 13 20 29 28 29 28 26 25 24 23 24 23 19 25 21 25 27 31 27 30 40 38 39 42 45 45 45 45 46 46 46 45 45 47 48 50
42 43 49 46 46 45 43 40 44 44 35 32 31 30 29 27 24 23 20 18 15 15 18 18 17 15 13 12 14 11 15 21 14 11 9 4 6 6 12 15 16 15 14 14 14 14 46 18 19 18 33 29 22 19 25 30 28 27 25 26 23 22 21 20 20 31 27 26 21 26 33 32 39 42 41 42 44 44 44 45 46 47 47 47 47 49 53 54
43 43 44 46 45 47 45 39 38 34 33 32 31 29 27 24 22 20 18 16 16 15 20 25 22 15 16 12 9 8 18 16 22 17 20 22 19 15 10 13 15 14 12 14 14 27 21 24 17 24 20 24 20 26 28 30 28 28 25 25 25 24 22 21 24 34 28 25 24 23 26 27 41 43 41 41 41 42 43 45 46 46 49 51 56 59 59 60
44 45 45 48 48 48 45 45 43 43 41 38 36 33 30 24 22 21 19 16 16 16 24 23 23 20 19 15 9 9 16 12 19 16 20 21 20 22 21 13 14 13 13 25 47 20 14 26 23 15 17 15 16 18 24 30 27 25 28 26 27 25 24 28 23 34 18 37 35 32 31 38 39 40 41 48 54 56 58 56 55 49 57 60 61 59 59 58
45 44 44 48 49 49 49 49 47 46 44 41 34 30 31 31 29 19 17 16 16 15 18 24 22 18 15 11 12 11 10 14 13 20 19 18 21 24 25 25 21 14 39 59 46 22 27 29 22 26 19 17 20 35 38 29 27 23 24 24 22 22 23 27 34 30 20 36 32 36 27 30 31 34 43 50 50 53 56 56 56 59 61 61 60 60 61 62
46 43 43 44 44 46 46 46 45 45 40 35 33 34 31 29 30 30 17 14 14 14 24 24 21 18 17 14 15 12 14 13 18 23 16 17 23 23 29 30 29 41 64 55 43 24 31 24 25 29 22 17 17 21 22 18 13 7 13 20 23 23 23 21 19 23 36 21 18 42 37 27 32 43 45 51 53 54 57 59 60 62 62 61 62 65 68 64
39 41 42 45 42 39 40 42 41 40 40 41 40 38 34 30 29 31 32 29 25 21 22 16 16 14 12 12 22 24 23 23 26 24 26 31 31 31 31 33 31 48 55 35 27 20 24 19 21 22 20 20 19 18 17 14 10 10 10 14 17 21 22 22 23 21 31 21 19 33 36 27 36 44 47 51 55 57 59 61 62 63 63 63 63 63 64 65
40 40 41 41 41 42 40 40 41 41 39 38 42 42 37 33 32 33 32 30 29 22 22 21 17 13 14 21 27 30 35 30 33 41 39 35 33 34 33 32 32 34 30 22 22 35 22 22 22 20 25 20 19 19 20 17 16 15 13 14 14 15 16 18 20 28 26 30 28 28 38 27 40 44 48 51 55 58 61 63 64 63 62 62 63 64 64 64
41 40 39 40 41 41 42 42 42 41 39 41 40 39 37 35 33 32 32 30 31 27 18 20 31 36 34 36 35 35 39 41 38 41 40 37 35 36 36 42 33 33 33 32 29 27 22 27 33 21 24 22 20 22 18 18 20 15 14 14 14 15 16 18 18 20 30 28 30 26 34 39 45 51 55 57 59 61 62 62 63 63 63 64 64 64 65 65
44 44 43 41 41 42 46 44 42 42 39 38 38 38 39 38 37 37 37 32 32 34 38 40 39 39 38 38 37 37 37 40 42 39 39 37 36 38 37 40 37 32 34 33 35 33 25 26 25 28 19 22 24 18 16 16 19 20 21 18 15 15 15 21 25 30 25 28 25 33 41 44 50 56 57 57 58 58 58 59 61 63 63 63 63 63 64 64
44 45 44 44 43 48 44 44 43 41 38 39 39 37 37 37 37 38 37 35 38 41 40 40 39 39 40 38 39 37 36 37 37 36 37 36 36 36 35 35 35 37 36 37 43 35 34 32 26 25 17 25 23 19 15 20 18 19 21 18 17 15 16 18 23 38 35 26 25 34 39 46 53 56 55 56 57 57 58 59 61 62 62 63 63 64 65 65